Lapse_Rate
7.7 7.7 7.7 7.8 7.6 7.2 6.8 6.3 6.9 7.0 6.4 6.5 6.9 6.9 6.3 6.4 6.5 6.4 5.9 5.9 5.4 5.4 5.7 6.3 6.3 6.4 6.5 6.0 6.4 6.1 6.3 6.6 5.9 6.2 6.2 5.7 5.4 4.7 5.3 4.9 5.1 5.5 5.5 5.6
7.8 7.8 7.3 7.1 6.8 6.5 6.9 6.2 7.0 7.7 7.2 6.4 6.9 6.1 6.3 6.5 6.8 6.9 6.2 6.1 5.5 5.3 5.6 6.5 6.9 6.3 6.0 5.8 6.4 6.4 6.5 6.6 6.3 6.3 6.2 6.0 5.6 4.9 5.1 4.8 5.1 5.5 5.6 5.7
7.6 8.0 7.7 6.5 6.7 7.0 6.9 7.0 7.5 7.0 6.9 7.1 7.0 6.7 5.9 6.5 6.6 6.8 6.6 5.9 5.7 5.9 5.7 5.8 6.0 5.6 5.8 6.1 6.3 6.6 6.6 6.4 6.4 6.3 6.3 5.8 5.7 5.4 5.2 5.3 5.3 5.4 5.4 5.5
8.0 8.3 8.4 7.4 7.4 6.8 6.9 7.4 7.3 7.2 6.7 7.7 6.7 6.8 6.6 6.6 6.8 6.7 6.9 6.5 6.0 6.0 5.8 5.8 5.4 5.3 5.8 6.4 6.3 6.5 6.7 6.5 6.3 6.2 5.9 5.7 5.7 5.5 5.8 5.7 5.3 5.3 5.2 5.4
8.2 8.3 8.2 7.9 8.2 7.2 7.1 7.4 7.2 8.1 7.5 7.0 6.9 6.7 7.2 6.8 6.8 7.1 6.8 7.0 6.4 6.2 6.2 5.9 5.8 5.7 6.5 6.8 6.6 6.6 6.2 6.2 6.3 6.2 5.9 5.9 5.8 5.6 5.8 5.7 5.5 5.3 5.3 5.2
8.4 8.3 8.2 8.4 8.1 7.8 7.3 7.2 7.2 6.9 7.3 6.6 6.1 6.2 7.3 7.1 7.5 7.5 7.1 7.4 6.9 6.5 6.7 6.2 6.2 6.5 6.6 6.6 6.4 6.4 6.4 6.2 6.3 6.3 6.2 6.1 5.9 6.0 5.6 5.5 5.6 5.1 5.1 5.3
8.5 8.7 8.6 8.6 7.7 7.7 7.1 7.6 7.3 7.0 6.1 6.1 6.6 6.8 7.9 7.7 7.3 7.1 7.7 7.5 7.2 7.2 7.0 6.8 6.6 6.8 6.8 6.6 6.4 6.3 6.1 6.3 6.5 6.5 6.4 6.3 6.1 6.1 5.9 5.7 5.5 5.6 5.4 5.5
8.5 9.0 8.8 8.4 8.1 8.4 7.8 8.4 7.7 5.9 5.7 5.2 6.7 6.8 8.1 7.4 7.9 7.9 7.5 7.8 7.3 7.3 7.3 7.2 7.2 7.1 6.8 6.5 6.3 6.1 6.3 6.7 6.7 6.4 6.4 6.3 6.3 6.2 6.0 5.9 5.9 5.9 5.6 5.8
8.7 8.9 8.9 8.9 8.9 8.6 8.1 7.9 7.6 6.7 5.8 5.3 5.9 7.2 7.5 7.5 8.3 7.8 7.7 7.8 7.6 7.3 7.4 7.3 7.1 7.0 6.8 6.5 6.5 6.3 6.6 6.8 6.7 6.5 6.3 6.1 6.1 6.2 6.0 5.9 5.9 5.9 6.0 6.1
8.9 8.9 9.5 9.5 8.8 8.6 8.4 7.9 7.7 7.5 5.3 5.6 6.5 5.8 7.1 7.5 7.8 7.8 7.5 7.4 7.5 7.3 7.1 7.2 7.1 7.0 7.0 6.8 6.8 6.7 6.7 6.6 6.4 6.2 6.1 6.0 6.0 5.9 5.8 5.8 5.9 6.2 6.3 6.3
9.2 9.2 9.2 9.3 9.2 9.0 8.3 8.2 7.9 7.8 7.2 5.7 5.4 7.5 8.3 7.7 7.7 7.9 7.8 7.5 7.3 7.2 7.4 7.0 7.1 7.2 6.9 6.9 6.7 6.6 6.5 6.4 6.4 6.3 6.1 6.0 5.9 5.9 5.9 6.0 6.0 6.1 6.4 6.5
9.4 8.8 9.0 9.2 9.3 9.2 9.1 9.1 8.9 8.5 7.1 7.3 7.0 8.2 8.1 7.8 7.3 7.6 7.9 7.5 7.2 7.1 7.1 6.9 7.2 7.1 7.0 6.9 6.6 6.6 6.6 6.4 6.4 6.2 6.3 6.3 6.2 5.9 6.0 5.9 6.0 6.4 6.4 6.4
9.1 8.9 8.7 9.1 9.3 8.5 9.0 8.9 8.9 9.0 8.4 8.0 7.2 8.7 8.3 7.8 7.5 7.6 7.9 7.5 7.2 7.1 7.1 6.9 6.9 6.8 7.0 7.3 7.2 7.0 6.6 6.7 6.7 6.6 6.3 6.4 6.3 6.2 6.0 6.3 6.4 6.4 6.5 6.3
8.6 8.6 8.5 8.6 8.9 9.0 9.3 9.4 9.0 9.2 8.5 8.3 8.4 9.3 8.9 8.0 7.8 8.0 8.0 7.8 7.8 7.2 6.8 7.0 6.7 6.5 6.7 6.6 6.8 7.1 7.1 6.7 6.7 6.9 6.7 6.7 6.5 6.5 6.4 6.7 6.7 6.7 6.3 6.2
8.2 8.6 8.0 8.4 8.7 9.0 9.0 9.1 9.0 9.2 9.1 8.9 8.9 9.1 9.5 8.4 7.9 8.1 8.0 8.3 7.8 7.4 7.5 6.9 6.8 6.6 6.5 6.6 6.8 6.2 6.5 6.7 6.3 6.5 6.9 6.8 6.6 6.7 6.7 6.9 6.6 6.6 6.4 6.4
8.0 8.3 8.2 8.3 8.3 8.5 8.7 9.0 9.5 9.2 9.5 9.3 8.8 8.8 9.2 8.6 8.1 8.1 8.6 8.9 8.6 8.3 7.6 7.3 7.0 6.6 6.4 6.1 6.3 6.6 6.2 6.1 6.1 6.5 6.8 6.9 6.6 6.9 6.8 6.8 6.8 6.8 6.8 6.6
8.3 7.9 8.0 8.0 8.4 8.0 8.6 9.0 9.2 9.5 9.7 9.5 9.2 9.3 9.2 9.0 8.3 8.6 8.4 8.7 8.6 8.4 7.8 7.0 6.9 6.8 6.6 6.6 6.5 6.5 6.1 6.2 6.4 6.6 6.7 6.3 6.7 6.4 6.5 6.8 6.8 6.7 6.7 6.4
7.2 7.6 7.6 7.5 8.3 7.6 8.9 8.9 8.9 9.3 9.1 9.2 9.2 9.2 9.2 9.3 9.2 8.6 8.7 8.6 8.5 8.5 8.2 7.4 6.7 6.6 6.5 6.4 6.5 6.3 6.2 6.2 6.5 6.8 6.6 6.4 6.2 6.7 6.9 6.7 6.9 6.7 6.4 6.2
7.6 7.5 7.4 7.7 7.9 7.9 8.4 9.1 9.1 9.2 9.0 9.6 9.4 9.2 9.1 9.4 9.0 8.7 8.5 8.6 8.2 8.5 8.6 8.2 7.8 7.0 6.7 6.6 6.2 6.2 6.0 5.8 6.1 6.2 6.2 6.6 6.5 6.7 6.7 6.9 6.6 6.4 6.1 6.1
7.1 7.0 7.2 7.3 7.5 7.0 7.8 8.4 8.9 9.0 9.1 8.5 8.2 8.9 9.6 9.4 8.8 8.9 9.1 9.1 8.4 8.4 8.6 8.6 8.3 7.8 7.2 6.6 6.3 6.1 6.1 6.1 6.4 6.3 6.4 6.4 6.4 6.7 6.8 6.7 6.3 6.1 6.1 6.0
7.0 7.3 7.1 7.3 7.3 7.4 7.1 7.9 8.7 8.6 7.8 8.4 8.6 8.7 9.4 9.5 9.6 9.6 9.3 9.3 8.9 8.5 8.5 8.7 8.6 8.1 7.5 7.3 6.9 6.6 6.4 6.4 6.5 6.6 6.8 6.5 6.3 6.5 6.6 6.4 6.2 6.0 6.1 6.1
5.4 5.9 6.4 6.9 7.2 6.8 6.5 7.4 7.5 6.5 7.5 7.9 8.4 8.8 7.9 9.4 9.0 9.0 9.0 9.1 9.0 8.9 8.9 8.9 8.7 8.4 7.8 7.5 6.8 6.6 6.8 6.9 6.8 6.6 6.4 6.5 6.4 6.1 6.0 6.0 6.0 6.1 6.0 5.9
5.0 4.9 5.0 5.1 5.0 4.6 4.9 5.3 5.7 6.1 7.5 7.9 8.4 8.6 8.6 8.3 8.8 9.2 9.4 8.9 8.5 8.4 8.8 9.1 8.7 8.6 8.1 7.4 7.2 7.3 7.2 7.1 6.8 6.6 6.4 6.3 6.0 5.9 6.2 6.1 5.9 6.0 5.9 5.7
4.4 4.1 4.3 4.8 5.7 4.9 5.4 5.2 5.6 6.3 6.6 6.9 7.7 8.3 8.5 8.3 7.9 8.1 8.8 9.2 8.6 8.3 7.4 8.0 8.7 8.5 7.9 7.5 7.4 7.7 7.4 7.3 7.1 6.7 6.3 6.2 6.2 6.2 6.2 6.0 5.9 5.9 5.8 5.8
3.9 4.4 4.3 4.4 4.9 5.1 5.5 5.1 5.4 6.2 6.5 6.0 6.9 8.0 7.9 8.1 8.1 8.0 7.5 8.1 8.5 8.0 7.1 6.7 8.5 8.5 8.0 7.6 7.7 7.7 7.6 7.4 7.1 6.7 6.6 6.3 6.1 6.0 6.0 6.1 6.0 6.0 5.9 5.6
3.6 3.5 3.1 3.2 3.7 3.6 4.8 5.6 5.6 5.7 6.7 5.9 6.7 7.8 7.8 7.9 8.0 8.2 7.6 7.7 8.2 8.5 8.5 7.0 7.8 8.2 7.9 7.7 7.6 7.4 7.5 7.2 6.9 6.9 6.7 6.1 5.9 5.8 5.6 5.7 5.9 5.9 5.7 5.9
Wind_Speed
4 5 3 6 4 3 4 6 10 14 10 2 4 2 11 11 10 12 10 11 11 11 11 10 10 10 6 3 4 8 7 7 4 2 2 1 3 3 4 7 13 12 14 15
1 1 4 6 3 2 3 6 10 12 5 4 2 6 6 14 13 16 16 13 13 10 12 14 12 11 13 10 9 7 8 7 5 3 3 3 3 2 3 7 8 10 13 15
4 6 1 2 3 11 6 5 7 7 8 12 3 11 7 14 10 9 11 11 11 14 12 16 16 14 12 11 10 8 9 9 6 7 2 2 3 3 2 1 2 4 11 12
3 5 5 7 8 6 4 7 7 5 1 2 8 4 4 13 13 12 13 12 12 13 9 10 14 6 7 12 9 9 10 8 8 7 3 3 3 3 3 4 4 5 6 7
8 5 6 7 7 13 9 10 4 2 6 5 11 2 5 7 10 12 14 15 14 13 14 13 10 12 9 12 10 11 10 9 7 6 5 4 4 3 2 2 3 3 3 6
7 2 5 6 12 19 3 1 6 6 2 4 4 3 5 4 4 17 15 17 17 17 15 13 12 13 16 15 12 11 8 8 7 7 7 7 7 5 3 2 4 2 2 3
4 6 4 9 7 11 3 6 3 5 5 1 9 1 7 9 3 11 18 18 19 17 16 15 13 11 15 15 15 11 8 9 8 8 7 8 8 6 6 3 4 2 2 3
3 7 10 9 8 7 5 7 5 3 3 4 6 4 8 15 22 14 15 21 19 16 14 18 19 15 14 17 15 12 9 10 8 8 8 7 7 4 4 4 2 4 3 3
5 5 4 6 7 7 3 4 2 8 4 4 7 6 11 11 10 9 12 16 18 18 17 18 19 15 14 16 16 15 12 13 8 10 7 7 7 7 6 6 4 3 4 1
5 3 6 3 5 4 7 10 3 3 5 3 7 7 7 9 6 2 7 12 19 18 18 16 16 16 13 15 16 16 15 15 13 8 7 7 7 7 6 6 5 3 4 4
4 3 6 4 5 9 3 3 4 6 4 5 3 6 9 11 8 8 11 12 17 20 18 18 16 16 16 15 15 15 13 8 7 7 6 7 7 7 7 6 5 2 3 5
1 5 1 4 8 5 5 6 5 5 5 2 1 6 6 8 7 8 14 13 15 15 17 18 18 16 13 15 14 13 7 7 7 7 8 8 6 6 6 6 6 6 6 5
2 2 4 9 7 4 2 1 3 7 4 6 5 6 6 6 4 9 8 11 10 10 9 8 10 12 13 12 10 10 10 9 9 8 5 6 7 7 7 7 7 7 6 6
6 3 6 5 9 3 7 6 8 7 4 7 6 7 7 6 7 8 6 8 8 6 11 12 11 13 11 12 13 11 12 11 9 8 6 6 7 9 9 7 7 6 6 6
5 2 5 4 7 3 4 4 7 5 4 7 9 9 12 8 10 10 6 7 7 6 9 14 14 12 12 14 14 14 13 6 3 6 4 5 7 8 5 5 6 6 6 8
5 3 5 7 7 9 5 9 6 7 10 4 2 10 10 7 6 6 9 8 7 7 9 8 8 13 16 15 13 7 5 3 4 1 5 5 6 7 7 6 9 10 8 6
2 2 4 6 5 7 5 4 3 5 6 9 5 11 8 7 7 9 10 9 9 8 7 8 9 10 13 15 12 9 8 4 4 6 6 7 9 10 9 8 8 9 8 7
6 1 4 4 5 4 8 4 10 9 6 6 3 4 10 13 14 6 11 12 12 11 9 8 7 6 6 7 8 8 7 7 7 5 7 10 10 10 9 9 9 7 6 8
10 4 2 3 4 6 9 4 2 4 5 5 4 3 7 3 6 2 10 14 13 11 11 9 8 10 7 8 8 9 7 7 7 7 7 7 8 9 9 10 10 7 8 6
4 2 5 3 3 6 6 21 13 4 5 26 23 19 6 3 5 9 14 14 11 13 12 10 8 7 9 9 10 11 8 7 7 7 6 7 7 10 10 10 9 4 5 5
6 5 2 4 4 2 18 21 8 7 10 26 25 18 9 7 6 5 8 8 12 15 12 12 12 10 11 12 11 10 8 7 6 7 7 8 10 11 10 8 6 6 6 6
2 2 3 3 3 1 21 9 8 6 15 21 18 17 9 9 2 6 14 10 14 16 14 15 14 14 12 12 12 9 8 7 7 8 9 10 10 9 8 10 5 6 6 6
4 4 2 2 2 4 6 4 5 10 14 17 12 15 8 10 11 4 10 10 9 7 12 15 16 15 11 11 13 11 9 9 9 9 10 9 8 7 7 8 7 5 5 5
7 3 3 6 5 9 13 8 15 16 13 20 13 14 11 5 10 3 8 10 14 16 8 10 15 16 12 11 11 13 10 10 11 10 9 7 8 6 6 5 5 5 5 4
5 6 3 6 8 14 2 9 13 19 17 19 18 16 14 8 7 6 7 9 13 14 2 6 14 15 14 13 12 14 12 12 11 10 8 6 6 7 6 4 3 3 2 3
4 6 3 8 8 10 11 16 15 14 18 18 22 23 22 2 6 2 7 7 12 14 13 7 13 16 16 15 14 13 13 13 13 10 7 7 7 5 5 5 3 5 5 2
Wind_Direction
15 47 81 149 163 172 203 287 304 284 297 3 232 50 173 163 148 147 155 160 166 168 158 176 178 194 192 186 201 185 168 191 164 177 155 255 245 184 186 198 208 181 191 198
336 319 138 102 168 120 243 219 267 293 222 230 337 297 223 175 176 172 168 178 173 159 156 177 191 185 196 190 198 176 191 183 199 183 184 195 188 188 155 189 197 187 186 189
159 238 76 76 50 352 321 263 275 235 284 212 172 217 222 202 179 173 181 176 179 179 179 182 195 187 182 183 187 183 185 188 191 208 109 37 29 48 74 97 263 239 195 174
20 295 181 134 118 228 317 263 156 244 133 145 37 277 247 179 196 184 180 181 188 186 197 178 197 177 169 194 182 187 191 192 203 183 162 158 198 170 199 190 203 219 200 187
243 203 196 161 185 177 228 253 301 195 107 93 351 55 262 125 204 200 193 186 193 191 191 186 179 183 200 199 195 202 197 196 199 185 171 186 203 196 188 189 209 227 207 201
263 276 170 137 195 193 207 254 9 20 35 68 278 132 287 220 217 200 194 191 187 192 196 198 184 183 195 205 201 203 201 211 197 191 189 195 204 189 168 213 222 192 291 240
282 233 123 156 172 203 190 62 351 1 14 222 328 41 245 259 277 221 199 188 187 187 192 194 201 187 193 197 201 205 193 213 201 199 194 194 197 196 207 196 228 108 251 238
213 327 169 180 176 163 168 144 154 129 348 310 354 343 281 293 286 251 183 182 185 188 188 195 200 196 189 193 196 202 193 214 194 190 200 189 180 185 204 213 190 212 232 253
154 270 257 161 145 145 203 67 124 103 359 26 318 293 289 277 0 154 166 171 185 192 187 189 200 191 190 188 194 196 196 212 198 196 184 183 184 188 192 215 222 198 263 207
230 285 216 183 113 25 166 158 83 30 108 65 275 279 237 296 332 109 191 185 188 192 195 195 199 191 188 188 192 195 197 200 198 182 182 187 193 196 199 203 223 229 232 195
195 124 289 113 201 171 94 205 71 111 112 154 229 249 217 220 251 224 194 196 186 196 194 196 200 199 182 185 185 194 194 175 161 163 180 188 200 196 198 200 205 242 182 170
209 127 323 271 279 174 107 162 145 120 223 219 188 274 121 206 230 263 246 188 201 192 191 194 193 190 182 182 180 181 155 149 152 159 181 193 178 193 198 211 213 209 194 157
209 30 7 350 0 8 280 86 107 100 107 191 165 256 189 146 289 277 147 188 189 193 168 159 144 155 165 160 151 151 158 165 174 168 157 177 185 185 206 203 206 208 179 129
44 100 151 183 227 210 313 178 176 128 132 164 235 254 241 202 202 258 150 146 159 161 163 161 156 157 149 154 156 163 172 185 156 158 167 162 187 199 202 201 204 181 150 146
41 354 342 286 239 267 282 180 211 205 158 165 221 234 258 197 195 213 215 146 142 152 152 167 154 151 150 158 172 178 185 187 111 147 167 215 196 194 173 148 165 126 121 140
358 290 32 316 325 355 317 329 216 194 199 284 193 245 261 237 119 171 217 149 159 163 172 153 133 148 156 162 175 156 188 198 106 46 224 223 158 134 116 119 122 131 122 103
274 54 26 281 342 340 1 291 231 257 177 174 170 226 265 242 189 185 215 164 162 163 171 169 154 152 149 169 164 170 183 173 148 203 163 145 135 123 123 122 122 122 116 121
248 142 160 248 17 343 238 283 255 216 287 261 273 201 225 224 215 160 209 166 165 162 170 177 153 164 162 137 136 135 130 151 150 165 127 124 127 125 136 137 129 117 131 128
202 171 239 166 185 270 303 283 286 188 262 236 185 290 200 128 84 311 206 177 172 161 171 180 170 160 163 151 139 122 128 123 141 151 151 134 137 130 131 128 127 135 127 125
70 184 152 130 167 226 334 332 293 147 221 2 331 292 211 130 158 232 197 179 166 166 164 163 159 133 140 150 136 139 143 142 141 159 156 138 140 133 131 133 131 123 128 129
335 344 196 184 208 279 337 332 325 62 322 324 338 304 283 149 203 268 147 169 167 174 168 145 142 140 141 139 137 132 132 140 141 122 124 125 134 126 132 124 122 126 123 123
39 339 340 339 185 275 352 23 51 307 320 322 343 1 344 323 290 184 167 160 165 171 153 148 142 139 142 137 131 130 134 134 131 122 124 124 117 132 134 125 129 133 129 140
44 122 249 108 248 163 25 74 1 338 326 328 325 345 330 332 315 348 147 120 89 124 150 149 146 138 142 138 139 143 151 138 130 126 122 124 121 130 131 135 143 138 149 158
341 40 357 357 306 345 340 357 343 339 329 330 340 323 315 316 302 50 112 115 105 90 282 165 142 142 142 146 148 142 151 140 134 130 137 135 134 132 138 139 151 152 161 168
246 337 290 259 295 318 177 343 338 326 336 335 320 322 305 268 275 188 171 180 142 142 194 229 151 146 148 143 146 150 151 142 140 142 138 140 146 162 157 118 170 179 176 192
195 256 295 290 284 276 295 319 321 320 323 337 331 331 337 193 248 321 202 205 164 144 157 186 165 152 149 146 152 156 153 150 149 146 143 165 174 173 157 152 147 75 70 10